,,,PA_Meas_PMT16A,,PR_Meas_QMR101_102,,RH_Meas_QMH101,,SR_Meas_QMS101,,TA_Meas_QMH101,,GenWind,,GenWind,
date,time,status,PA,status,PR,status,RH,status,SR,status,TA,status,DirAvg,status,SpdAvg,
2011-06-14, 00:00:05,VALID,1004.07,VALID,0,VALID,91.0049,VALID,0,VALID,27.0531,VALID,259,VALID,0,
2011-06-14, 00:01:05,VALID,1004.04,VALID,0,VALID,91.4092,VALID,0,VALID,27.0726,VALID,292,VALID,0,
2011-06-14, 00:02:05,VALID,1004.02,VALID,0,VALID,89.8835,VALID,0,VALID,27.0726,VALID,267,VALID,0,
2011-06-14, 00:03:05,VALID,1004.02,VALID,0,VALID,90.2802,VALID,0,VALID,27.1136,VALID,242,VALID,0,
2011-06-14, 00:04:05,VALID,1004.01,VALID,0,VALID,90.8371,VALID,0,VALID,27.1116,VALID,273,VALID,0,
2011-06-14, 00:05:05,VALID,1004,VALID,0,VALID,89.6699,VALID,0,VALID,27.1116,VALID,274,VALID,0,
2011-06-14, 00:06:05,VALID,1004.01,VALID,0,VALID,90.9591,VALID,0,VALID,27.1116,VALID,239,VALID,0,
2011-06-14, 00:07:05,VALID,1003.98,VALID,0,VALID,90.3107,VALID,0,VALID,27.0921,VALID,266,VALID,0,
2011-06-14, 00:08:05,VALID,1003.93,VALID,0,VALID,89.6699,VALID,0,VALID,27.09,VALID,248,VALID,0,
2011-06-14, 00:09:05,VALID,1003.93,VALID,0,VALID,90.8218,VALID,0,VALID,27.09,VALID,240,VALID,0,
2011-06-14, 00:10:05,VALID,1003.96,VALID,0,VALID,90.7913,VALID,0,VALID,27.1116,VALID,175,VALID,0,
2011-06-14, 00:11:05,VALID,1003.91,VALID,0,VALID,91.188,VALID,0,VALID,27.1116,VALID,265,VALID,0,
2011-06-14, 00:12:05,VALID,1003.9,VALID,0,VALID,90.5396,VALID,0,VALID,27.0706,VALID,265,VALID,0,
2011-06-14, 00:13:05,VALID,1003.88,VALID,0,VALID,90.9363,VALID,0,VALID,27.0706,VALID,180,VALID,0,
2011-06-14, 00:14:05,VALID,1003.9,VALID,0,VALID,90.2191,VALID,0,VALID,27.0726,VALID,231,VALID,0,
2011-06-14, 00:15:05,VALID,1003.89,VALID,0,VALID,90.12,VALID,0,VALID,27.0921,VALID,268,VALID,0,
2011-06-14, 00:16:05,VALID,1003.92,VALID,0,VALID,90.2878,VALID,0,VALID,27.1311,VALID,232,VALID,0,
2011-06-14, 00:17:05,VALID,1003.93,VALID,0,VALID,90.9591,VALID,0,VALID,27.1311,VALID,276,VALID,0,
2011-06-14, 00:18:05,VALID,1003.91,VALID,0,VALID,90.4785,VALID,0,VALID,27.1311,VALID,221,VALID,0,
2011-06-14, 00:19:05,VALID,1003.86,VALID,0,VALID,89.8072,VALID,0,VALID,27.1116,VALID,238,VALID,0,
2011-06-14, 00:20:05,VALID,1003.87,VALID,0,VALID,89.9598,VALID,0,VALID,27.1311,VALID,282,VALID,0,
2011-06-14, 00:21:05,VALID,1003.89,VALID,0,VALID,89.9369,VALID,0,VALID,27.129,VALID,274,VALID,0,
2011-06-14, 00:22:05,VALID,1003.85,VALID,0,VALID,89.0824,VALID,0,VALID,27.1485,VALID,272,VALID,0,
2011-06-14, 00:23:05,VALID,1003.88,VALID,0,VALID,89.3876,VALID,0,VALID,27.209,VALID,295,VALID,0,
2011-06-14, 00:24:05,VALID,1003.82,VALID,0,VALID,89.0748,VALID,0,VALID,27.209,VALID,338,VALID,0,
2011-06-14, 00:25:05,VALID,1003.85,VALID,0,VALID,89.0595,VALID,0,VALID,27.1895,VALID,240,VALID,0,
2011-06-14, 00:26:05,VALID,1003.82,VALID,0,VALID,89.7614,VALID,0,VALID,27.168,VALID,236,VALID,0,
2011-06-14, 00:27:05,VALID,1003.79,VALID,0,VALID,89.8606,VALID,0,VALID,27.129,VALID,239,VALID,0,
2011-06-14, 00:28:05,VALID,1003.83,VALID,0,VALID,90.6006,VALID,0,VALID,27.1095,VALID,220,VALID,0,
2011-06-14, 00:29:05,VALID,1003.76,VALID,0,VALID,88.2661,VALID,0,VALID,27.1095,VALID,260,VALID,0,
2011-06-14, 00:30:05,VALID,1003.74,VALID,0,VALID,88.1517,VALID,0,VALID,27.129,VALID,241,VALID,0,
2011-06-14, 00:31:05,VALID,1003.75,VALID,0,VALID,88.6552,VALID,0,VALID,27.129,VALID,245,VALID,0,
2011-06-14, 00:32:05,VALID,1003.71,VALID,0,VALID,88.9527,VALID,0,VALID,27.1506,VALID,243,VALID,0,
2011-06-14, 00:33:05,VALID,1003.74,VALID,0,VALID,89.0748,VALID,0,VALID,27.17,VALID,225,VALID,0,
2011-06-14, 00:34:05,VALID,1003.69,VALID,0,VALID,87.9915,VALID,0,VALID,27.129,VALID,248,VALID,0,
2011-06-14, 00:35:05,VALID,1003.69,VALID,0,VALID,88.3882,VALID,0,VALID,27.17,VALID,261,VALID,0,
2011-06-14, 00:36:05,VALID,1003.69,VALID,0,VALID,88.3195,VALID,0,VALID,27.1895,VALID,261,VALID,0,
2011-06-14, 00:37:05,VALID,1003.66,VALID,0,VALID,88.6018,VALID,0,VALID,27.209,VALID,245,VALID,0,
2011-06-14, 00:38:05,VALID,1003.63,VALID,0,VALID,88.3958,VALID,0,VALID,27.1875,VALID,341,VALID,0,
2011-06-14, 00:39:05,VALID,1003.61,VALID,0,VALID,88.5637,VALID,0,VALID,27.209,VALID,224,VALID,0,
2011-06-14, 00:40:05,VALID,1003.6,VALID,0,VALID,88.5026,VALID,0,VALID,27.1875,VALID,249,VALID,0,
2011-06-14, 00:41:05,VALID,1003.59,VALID,0,VALID,89.4105,VALID,0,VALID,27.2069,VALID,250,VALID,0,
2011-06-14, 00:42:05,VALID,1003.54,VALID,0,VALID,88.7315,VALID,0,VALID,27.209,VALID,248,VALID,0,
2011-06-14, 00:43:05,VALID,1003.54,VALID,0,VALID,88.6934,VALID,0,VALID,27.2285,VALID,328,VALID,0,
2011-06-14, 00:44:05,VALID,1003.48,VALID,0,VALID,87.1523,VALID,0,VALID,27.2069,VALID,281,VALID,0,
2011-06-14, 00:45:05,VALID,1003.5,VALID,0,VALID,88.1059,VALID,0,VALID,27.2675,VALID,253,VALID,0,
2011-06-14, 00:46:05,VALID,1003.49,VALID,0,VALID,88.2967,VALID,0,VALID,27.2675,VALID,195,VALID,0,
2011-06-14, 00:47:05,VALID,1003.45,VALID,0,VALID,88.1593,VALID,0,VALID,27.248,VALID,241,VALID,0,
2011-06-14, 00:48:05,VALID,1003.43,VALID,0,VALID,88.3195,VALID,0,VALID,27.248,VALID,305,VALID,0,
2011-06-14, 00:49:05,VALID,1003.4,VALID,0,VALID,88.3882,VALID,0,VALID,27.2285,VALID,253,VALID,0,
2011-06-14, 00:50:05,VALID,1003.39,VALID,0,VALID,87.6711,VALID,0.100563,VALID,27.2069,VALID,265,VALID,0,
2011-06-14, 00:51:05,VALID,1003.36,VALID,0,VALID,87.1828,VALID,0,VALID,27.2285,VALID,298,VALID,0,
2011-06-14, 00:52:05,VALID,1003.34,VALID,0,VALID,87.4804,VALID,0,VALID,27.248,VALID,256,VALID,0,
2011-06-14, 00:53:05,VALID,1003.35,VALID,0,VALID,87.4575,VALID,0,VALID,27.2264,VALID,247,VALID,0,
2011-06-14, 00:54:05,VALID,1003.32,VALID,0,VALID,88.0373,VALID,0,VALID,27.2069,VALID,266,VALID,0,
2011-06-14, 00:55:05,VALID,1003.31,VALID,0,VALID,87.8466,VALID,0,VALID,27.209,VALID,298,VALID,0,
2011-06-14, 00:56:05,VALID,1003.32,VALID,0,VALID,88.2585,VALID,0,VALID,27.2306,VALID,255,VALID,0,
2011-06-14, 00:57:05,VALID,1003.34,VALID,0,VALID,88.7773,VALID,0,VALID,27.209,VALID,281,VALID,0,
2011-06-14, 00:58:05,VALID,1003.29,VALID,0,VALID,88.0983,VALID,0,VALID,27.1875,VALID,268,VALID,0,
2011-06-14, 00:59:05,VALID,1003.32,VALID,0,VALID,88.8231,VALID,0,VALID,27.209,VALID,274,VALID,0,
2011-06-14, 01:00:05,VALID,1003.31,VALID,0,VALID,88.6552,VALID,0,VALID,27.2069,VALID,249,VALID,0,
2011-06-14, 01:01:05,VALID,1003.28,VALID,0,VALID,88.6247,VALID,0.100563,VALID,27.2285,VALID,235,VALID,0,
2011-06-14, 01:02:05,VALID,1003.25,VALID,0,VALID,89.0977,VALID,0,VALID,27.209,VALID,297,VALID,0,
2011-06-14, 01:03:05,VALID,1003.24,VALID,0,VALID,89.0672,VALID,0,VALID,27.1875,VALID,258,VALID,0,
2011-06-14, 01:04:05,VALID,1003.25,VALID,0,VALID,89.8987,VALID,0.100563,VALID,27.168,VALID,318,VALID,0,
2011-06-14, 01:05:05,VALID,1003.14,VALID,0,VALID,87.3965,VALID,0,VALID,27.1506,VALID,263,VALID,0,
2011-06-14, 01:06:05,VALID,1003.12,VALID,0,VALID,86.5496,VALID,0,VALID,27.17,VALID,278,VALID,0,
2011-06-14, 01:07:05,VALID,1003.14,VALID,0,VALID,86.2521,VALID,0,VALID,27.209,VALID,284,VALID,0,
2011-06-14, 01:08:05,VALID,1003.06,VALID,0,VALID,85.6876,VALID,0,VALID,27.2306,VALID,268,VALID,0,
2011-06-14, 01:09:05,VALID,1003.05,VALID,0,VALID,85.2985,VALID,0,VALID,27.209,VALID,272,VALID,0,
2011-06-14, 01:10:05,VALID,1003.05,VALID,0,VALID,85.0468,VALID,0,VALID,27.1895,VALID,300,VALID,0,
2011-06-14, 01:11:05,VALID,1003.02,VALID,0,VALID,84.3907,VALID,0,VALID,27.17,VALID,277,VALID,0,
2011-06-14, 01:12:05,VALID,1002.99,VALID,0,VALID,84.116,VALID,0,VALID,27.1485,VALID,267,VALID,0,
2011-06-14, 01:13:05,VALID,1003,VALID,0,VALID,83.6736,VALID,0,VALID,27.17,VALID,285,VALID,0,
2011-06-14, 01:14:05,VALID,1002.98,VALID,0,VALID,83.3684,VALID,0,VALID,27.17,VALID,279,VALID,0,
2011-06-14, 01:15:05,VALID,1002.94,VALID,0,VALID,83.4981,VALID,0,VALID,27.17,VALID,314,VALID,0,
2011-06-14, 01:16:05,VALID,1002.94,VALID,0,VALID,83.4447,VALID,0,VALID,27.1506,VALID,271,VALID,0,
2011-06-14, 01:17:05,VALID,1002.95,VALID,0,VALID,83.5591,VALID,0,VALID,27.1506,VALID,285,VALID,0,
2011-06-14, 01:18:05,VALID,1002.94,VALID,0,VALID,83.4676,VALID,0,VALID,27.1311,VALID,254,VALID,0,
2011-06-14, 01:19:05,VALID,1002.94,VALID,0,VALID,83.2997,VALID,0,VALID,27.1311,VALID,270,VALID,0,
2011-06-14, 01:20:05,VALID,1002.89,VALID,0,VALID,83.5591,VALID,0,VALID,27.1311,VALID,283,VALID,0,
2011-06-14, 01:21:05,VALID,1002.92,VALID,0,VALID,84.3068,VALID,0,VALID,27.17,VALID,193,VALID,0,
2011-06-14, 01:22:05,VALID,1002.88,VALID,0,VALID,84.2534,VALID,0,VALID,27.17,VALID,316,VALID,0,
2011-06-14, 01:23:05,VALID,1002.89,VALID,0,VALID,84.8255,VALID,0,VALID,27.17,VALID,160,VALID,0,
2011-06-14, 01:24:05,VALID,1002.87,VALID,0,VALID,84.0016,VALID,0,VALID,27.129,VALID,248,VALID,0,
2011-06-14, 01:25:05,VALID,1002.85,VALID,0,VALID,84.2152,VALID,0,VALID,27.1506,VALID,277,VALID,0,
2011-06-14, 01:26:05,VALID,1002.83,VALID,0,VALID,84.5433,VALID,0,VALID,27.1485,VALID,256,VALID,0,
2011-06-14, 01:27:05,VALID,1002.8,VALID,0,VALID,84.9247,VALID,0,VALID,27.1485,VALID,259,VALID,0,
2011-06-14, 01:28:05,VALID,1002.8,VALID,0,VALID,85.2527,VALID,0,VALID,27.17,VALID,193,VALID,0,
2011-06-14, 01:29:05,VALID,1002.82,VALID,0,VALID,85.4816,VALID,0,VALID,27.17,VALID,257,VALID,0,
2011-06-14, 01:30:05,VALID,1002.84,VALID,0,VALID,85.8631,VALID,0,VALID,27.1895,VALID,257,VALID,0,
2011-06-14, 01:31:05,VALID,1002.79,VALID,0,VALID,86.2979,VALID,0,VALID,27.17,VALID,283,VALID,0,
2011-06-14, 01:32:05,VALID,1002.8,VALID,0,VALID,86.7938,VALID,0,VALID,27.168,VALID,273,VALID,0,
2011-06-14, 01:33:05,VALID,1002.81,VALID,0,VALID,86.6488,VALID,0,VALID,27.17,VALID,207,VALID,0,
2011-06-14, 01:34:05,VALID,1002.81,VALID,0,VALID,87.1905,VALID,0,VALID,27.168,VALID,193,VALID,0,
2011-06-14, 01:35:05,VALID,1002.77,VALID,0,VALID,87.3354,VALID,0,VALID,27.1485,VALID,296,VALID,0,
2011-06-14, 01:36:04,VALID,1002.81,VALID,0,VALID,87.6711,VALID,0,VALID,27.17,VALID,222,VALID,0,
2011-06-14, 01:37:04,VALID,1002.81,VALID,0,VALID,86.5878,VALID,0,VALID,27.17,VALID,302,VALID,0,
2011-06-14, 01:38:04,VALID,1002.85,VALID,0,VALID,86.8014,VALID,0,VALID,27.17,VALID,230,VALID,0,
2011-06-14, 01:39:04,VALID,1002.84,VALID,0,VALID,86.3589,VALID,0,VALID,27.1506,VALID,270,VALID,0,
2011-06-14, 01:40:04,VALID,1002.83,VALID,0,VALID,85.9393,VALID,0,VALID,27.17,VALID,285,VALID,0,
2011-06-14, 01:41:04,VALID,1002.83,VALID,0,VALID,85.9012,VALID,0,VALID,27.209,VALID,338,VALID,0,
2011-06-14, 01:42:04,VALID,1002.8,VALID,0,VALID,85.8173,VALID,0,VALID,27.2285,VALID,224,VALID,0,
2011-06-14, 01:43:04,VALID,1002.83,VALID,0,VALID,85.9241,VALID,0,VALID,27.2285,VALID,265,VALID,0,
2011-06-14, 01:44:04,VALID,1002.84,VALID,0,VALID,86.1148,VALID,0,VALID,27.2285,VALID,300,VALID,0,
2011-06-14, 01:45:04,VALID,1002.82,VALID,0,VALID,86.1224,VALID,0,VALID,27.2285,VALID,233,VALID,0,
2011-06-14, 01:46:04,VALID,1002.8,VALID,0,VALID,85.3061,VALID,0,VALID,27.2069,VALID,268,VALID,0,
2011-06-14, 01:47:04,VALID,1002.77,VALID,0,VALID,85.6571,VALID,0,VALID,27.2069,VALID,305,VALID,0,
2011-06-14, 01:48:04,VALID,1002.78,VALID,0,VALID,84.9323,VALID,0,VALID,27.2069,VALID,218,VALID,0,
2011-06-14, 01:49:04,VALID,1002.76,VALID,0,VALID,84.6501,VALID,0,VALID,27.1875,VALID,288,VALID,0,
2011-06-14, 01:50:04,VALID,1002.77,VALID,0,VALID,84.6882,VALID,0,VALID,27.1875,VALID,269,VALID,0,
2011-06-14, 01:51:04,VALID,1002.77,VALID,0,VALID,85.1536,VALID,0,VALID,27.1875,VALID,283,VALID,0,
2011-06-14, 01:52:04,VALID,1002.76,VALID,0,VALID,84.9857,VALID,0,VALID,27.17,VALID,290,VALID,0,
2011-06-14, 01:53:04,VALID,1002.74,VALID,0,VALID,85.2299,VALID,0,VALID,27.17,VALID,249,VALID,0,
2011-06-14, 01:54:04,VALID,1002.68,VALID,0,VALID,85.1078,VALID,0,VALID,27.1485,VALID,246,VALID,0,
2011-06-14, 01:55:04,VALID,1002.71,VALID,0,VALID,85.001,VALID,0,VALID,27.1506,VALID,191,VALID,0,
2011-06-14, 01:56:04,VALID,1002.75,VALID,0,VALID,84.6424,VALID,0,VALID,27.1485,VALID,220,VALID,0,
2011-06-14, 01:57:04,VALID,1002.68,VALID,0,VALID,84.795,VALID,0,VALID,27.1485,VALID,268,VALID,0,
2011-06-14, 01:58:04,VALID,1002.7,VALID,0,VALID,84.5204,VALID,0,VALID,27.1485,VALID,271,VALID,0,
2011-06-14, 01:59:04,VALID,1002.68,VALID,0,VALID,84.1923,VALID,0,VALID,27.17,VALID,299,VALID,0,
2011-06-14, 02:00:04,VALID,1002.64,VALID,0,VALID,84.1618,VALID,0,VALID,27.1895,VALID,293,VALID,0,
2011-06-14, 02:01:04,VALID,1002.64,VALID,0,VALID,84.3144,VALID,0,VALID,27.17,VALID,273,VALID,0,
2011-06-14, 02:02:04,VALID,1002.63,VALID,0,VALID,84.7492,VALID,0,VALID,27.1506,VALID,261,VALID,0,
2011-06-14, 02:03:04,VALID,1002.64,VALID,0,VALID,84.7035,VALID,0,VALID,27.1506,VALID,256,VALID,0,
2011-06-14, 02:04:04,VALID,1002.6,VALID,0,VALID,84.7645,VALID,0,VALID,27.129,VALID,239,VALID,0,
2011-06-14, 02:05:04,VALID,1002.61,VALID,0,VALID,85.3138,VALID,0,VALID,27.1311,VALID,352,VALID,0,
2011-06-14, 02:06:04,VALID,1002.59,VALID,0,VALID,85.3672,VALID,0,VALID,27.1311,VALID,290,VALID,0,
2011-06-14, 02:07:04,VALID,1002.57,VALID,0,VALID,85.6189,VALID,0,VALID,27.1311,VALID,248,VALID,0,
2011-06-14, 02:08:04,VALID,1002.59,VALID,0,VALID,86.1606,VALID,0,VALID,27.1331,VALID,277,VALID,0,
2011-06-14, 02:09:04,VALID,1002.54,VALID,0,VALID,86.3894,VALID,0,VALID,27.0706,VALID,254,VALID,0,
2011-06-14, 02:10:04,VALID,1002.59,VALID,0,VALID,86.6107,VALID,0,VALID,27.0921,VALID,261,VALID,0,
2011-06-14, 02:11:04,VALID,1002.56,VALID,0,VALID,85.6189,VALID,0,VALID,27.09,VALID,274,VALID,0,
2011-06-14, 02:12:04,VALID,1002.59,VALID,0,VALID,85.6418,VALID,0,VALID,27.1311,VALID,203,VALID,0,
2011-06-14, 02:13:04,VALID,1002.56,VALID,0,VALID,84.9018,VALID,0,VALID,27.1526,VALID,223,VALID,0,
2011-06-14, 02:14:04,VALID,1002.54,VALID,0,VALID,84.5356,VALID,0,VALID,27.1311,VALID,263,VALID,0,
2011-06-14, 02:15:04,VALID,1002.55,VALID,0,VALID,84.7187,VALID,0,VALID,27.17,VALID,268,VALID,0,
2011-06-14, 02:16:04,VALID,1002.51,VALID,0,VALID,85.1154,VALID,0,VALID,27.209,VALID,275,VALID,0,
2011-06-14, 02:17:04,VALID,1002.52,VALID,0,VALID,85.5579,VALID,0,VALID,27.17,VALID,227,VALID,0,
2011-06-14, 02:18:04,VALID,1002.55,VALID,0,VALID,86.1529,VALID,0,VALID,27.168,VALID,2,VALID,0,
2011-06-14, 02:19:04,VALID,1002.56,VALID,0,VALID,86.0385,VALID,0,VALID,27.1895,VALID,258,VALID,0,
2011-06-14, 02:20:04,VALID,1002.59,VALID,0,VALID,85.8249,VALID,0,VALID,27.209,VALID,298,VALID,0,
2011-06-14, 02:21:04,VALID,1002.55,VALID,0,VALID,85.7334,VALID,0,VALID,27.2069,VALID,289,VALID,0,
2011-06-14, 02:22:04,VALID,1002.61,VALID,0,VALID,85.8783,VALID,0,VALID,27.209,VALID,244,VALID,0,
2011-06-14, 02:23:04,VALID,1002.58,VALID,0,VALID,85.8859,VALID,0,VALID,27.1875,VALID,303,VALID,0,
2011-06-14, 02:24:04,VALID,1002.55,VALID,0,VALID,85.68,VALID,0,VALID,27.1895,VALID,221,VALID,0,
2011-06-14, 02:25:04,VALID,1002.56,VALID,0,VALID,85.6037,VALID,0,VALID,27.1895,VALID,269,VALID,0,
2011-06-14, 02:26:04,VALID,1002.54,VALID,0,VALID,85.9546,VALID,0,VALID,27.17,VALID,229,VALID,0,
2011-06-14, 02:27:04,VALID,1002.53,VALID,0,VALID,86.8319,VALID,0,VALID,27.1895,VALID,255,VALID,0,
2011-06-14, 02:28:04,VALID,1002.51,VALID,0,VALID,86.6641,VALID,0,VALID,27.17,VALID,250,VALID,0,
2011-06-14, 02:29:04,VALID,1002.51,VALID,0,VALID,85.68,VALID,0,VALID,27.17,VALID,260,VALID,0,
2011-06-14, 02:30:04,VALID,1002.51,VALID,0,VALID,86.0156,VALID,0,VALID,27.1895,VALID,252,VALID,0,
2011-06-14, 02:31:04,VALID,1002.5,VALID,0,VALID,84.5814,VALID,0,VALID,27.1895,VALID,280,VALID,0,
2011-06-14, 02:32:04,VALID,1002.5,VALID,0,VALID,84.9476,VALID,0,VALID,27.1895,VALID,230,VALID,0,
2011-06-14, 02:33:04,VALID,1002.49,VALID,0,VALID,85.7562,VALID,0,VALID,27.1895,VALID,222,VALID,0,
2011-06-14, 02:34:04,VALID,1002.49,VALID,0,VALID,85.8859,VALID,0,VALID,27.17,VALID,262,VALID,0,
2011-06-14, 02:35:04,VALID,1002.45,VALID,0,VALID,86.1148,VALID,0,VALID,27.1485,VALID,284,VALID,0,
2011-06-14, 02:36:04,VALID,1002.43,VALID,0,VALID,86.0461,VALID,0,VALID,27.17,VALID,300,VALID,0,
2011-06-14, 02:37:04,VALID,1002.45,VALID,0,VALID,87.0455,VALID,0,VALID,27.17,VALID,99,VALID,0,
2011-06-14, 02:38:04,VALID,1002.42,VALID,0,VALID,86.954,VALID,0,VALID,27.1485,VALID,299,VALID,0,
2011-06-14, 02:39:04,VALID,1002.44,VALID,0,VALID,87.5872,VALID,0,VALID,27.17,VALID,283,VALID,0,
2011-06-14, 02:40:04,VALID,1002.46,VALID,0,VALID,87.0455,VALID,0,VALID,27.1506,VALID,288,VALID,0,
2011-06-14, 02:41:04,VALID,1002.46,VALID,0,VALID,86.5573,VALID,0,VALID,27.1506,VALID,278,VALID,0,
2011-06-14, 02:42:04,VALID,1002.48,VALID,0,VALID,86.6412,VALID,0,VALID,27.1506,VALID,241,VALID,0,
2011-06-14, 02:43:04,VALID,1002.47,VALID,0,VALID,86.748,VALID,0,VALID,27.1311,VALID,313,VALID,0,
2011-06-14, 02:44:04,VALID,1002.5,VALID,0,VALID,87.015,VALID,0,VALID,27.1485,VALID,235,VALID,0,
2011-06-14, 02:45:04,VALID,1002.5,VALID,0,VALID,87.4727,VALID,0,VALID,27.1506,VALID,274,VALID,0,
2011-06-14, 02:46:04,VALID,1002.48,VALID,0,VALID,87.1294,VALID,0,VALID,27.1485,VALID,285,VALID,0,
2011-06-14, 02:47:04,VALID,1002.48,VALID,0,VALID,86.4047,VALID,0,VALID,27.17,VALID,270,VALID,0,
2011-06-14, 02:48:04,VALID,1002.47,VALID,0,VALID,85.8249,VALID,0,VALID,27.129,VALID,276,VALID,0,
2011-06-14, 02:49:04,VALID,1002.5,VALID,0,VALID,85.5426,VALID,0,VALID,27.1506,VALID,285,VALID,0,
2011-06-14, 02:50:04,VALID,1002.47,VALID,0,VALID,85.268,VALID,0,VALID,27.1485,VALID,274,VALID,0,
2011-06-14, 02:51:04,VALID,1002.49,VALID,0,VALID,85.3519,VALID,0,VALID,27.168,VALID,284,VALID,0,
2011-06-14, 02:52:04,VALID,1002.49,VALID,0,VALID,85.268,VALID,0,VALID,27.168,VALID,297,VALID,0,
2011-06-14, 02:53:04,VALID,1002.48,VALID,0,VALID,85.1383,VALID,0,VALID,27.209,VALID,246,VALID,0,
2011-06-14, 02:54:04,VALID,1002.5,VALID,0,VALID,85.5198,VALID,0,VALID,27.209,VALID,273,VALID,0,
2011-06-14, 02:55:04,VALID,1002.48,VALID,0,VALID,85.9927,VALID,0,VALID,27.1895,VALID,253,VALID,0,
2011-06-14, 02:56:04,VALID,1002.54,VALID,0,VALID,86.3894,VALID,0,VALID,27.1485,VALID,252,VALID,0,
2011-06-14, 02:57:04,VALID,1002.53,VALID,0,VALID,86.0461,VALID,0,VALID,27.1485,VALID,276,VALID,0,
2011-06-14, 02:58:04,VALID,1002.53,VALID,0,VALID,86.2521,VALID,0,VALID,27.17,VALID,242,VALID,0,
2011-06-14, 02:59:04,VALID,1002.56,VALID,0,VALID,86.4505,VALID,0,VALID,27.1895,VALID,247,VALID,0,
2011-06-14, 03:00:04,VALID,1002.55,VALID,0,VALID,86.4581,VALID,0,VALID,27.1895,VALID,187,VALID,0,
2011-06-14, 03:01:04,VALID,1002.52,VALID,0,VALID,86.5191,VALID,0,VALID,27.1875,VALID,292,VALID,0,
2011-06-14, 03:02:04,VALID,1002.55,VALID,0,VALID,87.2057,VALID,0,VALID,27.168,VALID,276,VALID,0,
2011-06-14, 03:03:04,VALID,1002.52,VALID,0,VALID,86.7327,VALID,0,VALID,27.1506,VALID,258,VALID,0,
2011-06-14, 03:04:04,VALID,1002.54,VALID,0,VALID,87.343,VALID,0,VALID,27.129,VALID,280,VALID,0,
2011-06-14, 03:05:04,VALID,1002.57,VALID,0,VALID,87.2668,VALID,0,VALID,27.1311,VALID,302,VALID,0,
2011-06-14, 03:06:04,VALID,1002.62,VALID,0,VALID,87.1752,VALID,0,VALID,27.1506,VALID,260,VALID,0,
2011-06-14, 03:07:04,VALID,1002.66,VALID,0,VALID,86.8395,VALID,0,VALID,27.1895,VALID,261,VALID,0,
2011-06-14, 03:08:04,VALID,1002.65,VALID,0,VALID,86.7556,VALID,0,VALID,27.2285,VALID,238,VALID,0,
2011-06-14, 03:09:04,VALID,1002.68,VALID,0,VALID,86.8929,VALID,0,VALID,27.2285,VALID,166,VALID,0,
2011-06-14, 03:10:04,VALID,1002.69,VALID,0,VALID,86.6031,VALID,0,VALID,27.1875,VALID,308,VALID,0,
2011-06-14, 03:11:04,VALID,1002.73,VALID,0,VALID,86.7709,VALID,0,VALID,27.209,VALID,330,VALID,0,
2011-06-14, 03:12:04,VALID,1002.75,VALID,0,VALID,87.5414,VALID,0,VALID,27.1895,VALID,223,VALID,0,
2011-06-14, 03:13:04,VALID,1002.74,VALID,0,VALID,86.9311,VALID,0,VALID,27.1485,VALID,289,VALID,0,
2011-06-14, 03:14:04,VALID,1002.77,VALID,0,VALID,87.015,VALID,0,VALID,27.168,VALID,288,VALID,0,
2011-06-14, 03:15:04,VALID,1002.79,VALID,0,VALID,87.2362,VALID,0,VALID,27.1485,VALID,281,VALID,0,
2011-06-14, 03:16:04,VALID,1002.81,VALID,0,VALID,86.6488,VALID,0,VALID,27.1485,VALID,264,VALID,0,
2011-06-14, 03:17:04,VALID,1002.8,VALID,0,VALID,85.5732,VALID,0,VALID,27.17,VALID,242,VALID,0,
2011-06-14, 03:18:04,VALID,1002.82,VALID,0,VALID,84.3907,VALID,0,VALID,27.1895,VALID,289,VALID,0,
2011-06-14, 03:19:04,VALID,1002.85,VALID,0,VALID,85.1459,VALID,0,VALID,27.248,VALID,280,VALID,0,
2011-06-14, 03:20:04,VALID,1002.87,VALID,0,VALID,85.8707,VALID,0,VALID,27.2675,VALID,206,VALID,0,
2011-06-14, 03:21:04,VALID,1002.87,VALID,0,VALID,85.5121,VALID,0.100563,VALID,27.2459,VALID,268,VALID,0,
2011-06-14, 03:22:04,VALID,1002.88,VALID,0,VALID,84.8408,VALID,0,VALID,27.248,VALID,220,VALID,0,
2011-06-14, 03:23:04,VALID,1002.9,VALID,0,VALID,85.0925,VALID,0,VALID,27.248,VALID,157,VALID,0,
2011-06-14, 03:24:04,VALID,1002.9,VALID,0,VALID,84.6195,VALID,0,VALID,27.248,VALID,275,VALID,0,
2011-06-14, 03:25:04,VALID,1002.93,VALID,0,VALID,84.1542,VALID,0,VALID,27.248,VALID,254,VALID,0,
2011-06-14, 03:26:04,VALID,1002.95,VALID,0,VALID,84.2534,VALID,0,VALID,27.2675,VALID,232,VALID,0,
2011-06-14, 03:27:04,VALID,1002.95,VALID,0,VALID,85.001,VALID,0,VALID,27.2675,VALID,274,VALID,0,
2011-06-14, 03:28:04,VALID,1002.93,VALID,0,VALID,83.8643,VALID,0,VALID,27.2695,VALID,263,VALID,0,
2011-06-14, 03:29:04,VALID,1002.97,VALID,0,VALID,84.0474,VALID,0,VALID,27.2264,VALID,229,VALID,0,
2011-06-14, 03:30:04,VALID,1002.94,VALID,0,VALID,84.8103,VALID,0,VALID,27.2264,VALID,229,VALID,0,
2011-06-14, 03:31:04,VALID,1002.97,VALID,0,VALID,84.3907,VALID,0,VALID,27.2264,VALID,237,VALID,0,
2011-06-14, 03:32:04,VALID,1002.96,VALID,0,VALID,85.0468,VALID,0,VALID,27.248,VALID,234,VALID,0,
2011-06-14, 03:33:04,VALID,1002.95,VALID,0,VALID,84.6348,VALID,0,VALID,27.2675,VALID,287,VALID,0,
2011-06-14, 03:34:04,VALID,1002.97,VALID,0,VALID,85.1536,VALID,0,VALID,27.2654,VALID,248,VALID,0,
2011-06-14, 03:35:04,VALID,1002.98,VALID,0,VALID,85.4663,VALID,0,VALID,27.2654,VALID,288,VALID,0,
2011-06-14, 03:36:04,VALID,1002.98,VALID,0,VALID,85.5274,VALID,0,VALID,27.2675,VALID,255,VALID,0,
2011-06-14, 03:37:04,VALID,1002.97,VALID,0,VALID,85.535,VALID,0,VALID,27.2675,VALID,268,VALID,0,
2011-06-14, 03:38:04,VALID,1002.97,VALID,0,VALID,86.3284,VALID,0,VALID,27.2675,VALID,229,VALID,0,
2011-06-14, 03:39:04,VALID,1002.98,VALID,0,VALID,87.2057,VALID,0,VALID,27.289,VALID,260,VALID,0,
2011-06-14, 03:40:04,VALID,1002.96,VALID,0,VALID,87.7474,VALID,0,VALID,27.2654,VALID,252,VALID,0,
2011-06-14, 03:41:04,VALID,1002.98,VALID,0,VALID,87.8923,VALID,0,VALID,27.2675,VALID,312,VALID,0,
2011-06-14, 03:42:04,VALID,1002.98,VALID,0,VALID,88.1365,VALID,0,VALID,27.2869,VALID,267,VALID,0,
2011-06-14, 03:43:04,VALID,1003,VALID,0,VALID,88.6247,VALID,0,VALID,27.2654,VALID,270,VALID,0,
2011-06-14, 03:44:04,VALID,1003.04,VALID,0,VALID,88.3958,VALID,0,VALID,27.2654,VALID,315,VALID,0,
2011-06-14, 03:45:04,VALID,1003.02,VALID,0,VALID,89.2426,VALID,0,VALID,27.2264,VALID,344,VALID,0,
2011-06-14, 03:46:04,VALID,1003.05,VALID,0,VALID,90.3031,VALID,0,VALID,27.1895,VALID,273,VALID,0,
2011-06-14, 03:47:04,VALID,1003.03,VALID,0,VALID,90.3412,VALID,0,VALID,27.1506,VALID,255,VALID,0,
2011-06-14, 03:48:04,VALID,1003.04,VALID,0,VALID,91.2262,VALID,0,VALID,27.1311,VALID,217,VALID,0,
2011-06-14, 03:49:04,VALID,1003.09,VALID,0,VALID,89.9979,VALID,0,VALID,27.1095,VALID,259,VALID,0,
2011-06-14, 03:50:04,VALID,1003.06,VALID,0,VALID,90.1352,VALID,0,VALID,27.17,VALID,208,VALID,0,
2011-06-14, 03:51:04,VALID,1003.05,VALID,0,VALID,90.448,VALID,0,VALID,27.1721,VALID,317,VALID,0,
2011-06-14, 03:52:04,VALID,1003.06,VALID,0,VALID,90.5853,VALID,0,VALID,27.09,VALID,299,VALID,0,
2011-06-14, 03:53:04,VALID,1003.08,VALID,0,VALID,91.127,VALID,0,VALID,27.0921,VALID,312,VALID,0,
2011-06-14, 03:54:04,VALID,1003.08,VALID,0,VALID,90.3031,VALID,0,VALID,27.0726,VALID,304,VALID,0,
2011-06-14, 03:55:04,VALID,1003.05,VALID,0,VALID,89.6927,VALID,0,VALID,27.0726,VALID,286,VALID,0,
2011-06-14, 03:56:04,VALID,1003.09,VALID,0,VALID,90.0513,VALID,0,VALID,27.0726,VALID,282,VALID,0,
2011-06-14, 03:57:04,VALID,1003.1,VALID,0,VALID,89.8377,VALID,0,VALID,27.1116,VALID,298,VALID,0,
2011-06-14, 03:58:04,VALID,1003.05,VALID,0,VALID,90.7074,VALID,0,VALID,27.0706,VALID,297,VALID,0,
2011-06-14, 03:59:04,VALID,1003.07,VALID,0,VALID,91.1728,VALID,0,VALID,27.0726,VALID,315,VALID,0,
2011-06-14, 04:00:04,VALID,1003.06,VALID,0,VALID,90.9363,VALID,0,VALID,27.0511,VALID,294,VALID,0,